Zurück zum Katalog

FENGYUN 1C DEB

AktivPO
NORAD 30154·DEBRIS·🇨🇳 China

Gestartet May 10, 1999 von Taiyuan Satellite Launch Center

Loading…

Nächste Überflüge (nächste 24 Stunden)

TLE

AktuellSource: Space-Track

Epoche: Sep 14, 2026, 00:25 UTC

1 30154U 99025TK  26257.01793274  .00001166  00000-0  90691-3 0  9995
2 30154  98.4310 277.0230 0180518 162.0031 228.5445 13.86827744987999

Verfolge FENGYUN 1C DEB in Echtzeit mit AllMySat

Download on the App Store